TimeMDT,TemperatureF,Dew PointF,Humidity,Sea Level PressureIn,VisibilityMPH,Wind Direction,Wind SpeedMPH,Gust SpeedMPH,PrecipitationIn,Events,Conditions,WindDirDegrees,DateUTC
12:56 AM,51.1,46.9,86,30.16,-9999.0,North,11.5,-,N/A,,Unknown,350,2012-10-01 06:56:00
1:56 AM,50.0,46.9,89,30.17,-9999.0,NNW,6.9,-,N/A,,Unknown,340,2012-10-01 07:56:00
2:56 AM,51.1,46.9,86,30.18,-9999.0,NNW,13.8,20.7,N/A,,Unknown,340,2012-10-01 08:56:00
3:56 AM,48.0,45.0,89,30.21,-9999.0,NNW,13.8,-,N/A,,Unknown,340,2012-10-01 09:56:00
4:56 AM,45.0,43.0,93,30.24,-9999.0,NNW,6.9,-,N/A,,Unknown,330,2012-10-01 10:56:00
5:56 AM,43.0,42.1,97,30.27,-9999.0,NNW,9.2,-,N/A,,Unknown,330,2012-10-01 11:56:00
6:56 AM,42.1,41.0,96,30.28,-9999.0,West,6.9,-,N/A,,Unknown,280,2012-10-01 12:56:00
7:56 AM,44.1,43.0,96,30.30,-9999.0,West,6.9,-,N/A,,Unknown,280,2012-10-01 13:56:00
8:56 AM,50.0,44.1,80,30.31,-9999.0,NW,11.5,-,N/A,,Unknown,320,2012-10-01 14:56:00
9:56 AM,54.0,44.1,69,30.30,-9999.0,NW,10.4,-,N/A,,Unknown,310,2012-10-01 15:56:00
10:56 AM,59.0,37.9,46,30.27,-9999.0,NNW,11.5,-,N/A,,Unknown,340,2012-10-01 16:56:00
11:56 AM,61.0,35.1,38,30.25,-9999.0,NNW,11.5,-,N/A,,Unknown,340,2012-10-01 17:56:00
12:56 PM,63.0,35.1,35,30.22,-9999.0,NNW,15.0,-,N/A,,Unknown,340,2012-10-01 18:56:00
1:56 PM,64.0,32.0,30,30.18,-9999.0,NNW,5.8,16.1,N/A,,Unknown,330,2012-10-01 19:56:00
2:56 PM,66.0,32.0,28,30.16,-9999.0,NW,5.8,-,N/A,,Unknown,320,2012-10-01 20:56:00
3:56 PM,64.9,30.9,28,30.14,-9999.0,Variable,3.5,-,N/A,,Unknown,0,2012-10-01 21:56:00
4:56 PM,66.0,30.0,26,30.12,-9999.0,West,5.8,-,N/A,,Unknown,280,2012-10-01 22:56:00
5:56 PM,64.0,30.9,29,30.11,-9999.0,Calm,Calm,-,N/A,,Unknown,0,2012-10-01 23:56:00
6:56 PM,59.0,30.9,35,30.10,-9999.0,SSE,3.5,-,N/A,,Unknown,150,2012-10-02 00:56:00
7:56 PM,51.1,33.1,50,30.09,-9999.0,SSE,10.4,-,N/A,,Unknown,160,2012-10-02 01:56:00
8:56 PM,50.0,33.1,52,30.07,-9999.0,SSE,11.5,-,N/A,,Unknown,150,2012-10-02 02:56:00
9:56 PM,46.0,34.0,63,30.05,-9999.0,South,12.7,-,N/A,,Unknown,170,2012-10-02 03:56:00
10:56 PM,43.0,34.0,71,30.01,-9999.0,South,16.1,-,N/A,,Unknown,170,2012-10-02 04:56:00
11:56 PM,42.1,34.0,73,29.97,-9999.0,South,16.1,-,N/A,,Unknown,170,2012-10-02 05:56:00